Timestamp (UTC),Height (m)
2024-04-30T00:00:00Z,108.32
2024-04-30T01:00:00Z,108.31
2024-04-30T02:00:00Z,108.31
2024-04-30T03:00:00Z,108.29
2024-04-30T04:00:00Z,108.29
2024-04-30T05:00:00Z,108.29
2024-04-30T06:00:00Z,108.28
2024-04-30T07:00:00Z,108.28
2024-04-30T08:00:00Z,108.28
2024-04-30T09:00:00Z,108.27
2024-04-30T10:00:00Z,108.27
2024-04-30T11:00:00Z,108.27
2024-04-30T12:00:00Z,108.26
2024-04-30T13:00:00Z,108.25
2024-04-30T14:00:00Z,108.24
2024-04-30T15:00:00Z,108.23
2024-04-30T16:00:00Z,108.23
2024-04-30T17:00:00Z,108.22
2024-04-30T18:00:00Z,108.22
2024-04-30T19:00:00Z,108.23
2024-04-30T20:00:00Z,108.22
2024-04-30T21:00:00Z,108.22
2024-04-30T22:00:00Z,108.22
2024-04-30T23:00:00Z,108.21
2024-05-01T00:00:00Z,108.21
2024-05-01T01:00:00Z,108.20
2024-05-01T02:00:00Z,108.20
2024-05-01T03:00:00Z,108.20
2024-05-01T04:00:00Z,108.19
2024-05-01T05:00:00Z,108.19
2024-05-01T06:00:00Z,108.19
2024-05-01T07:00:00Z,108.18
2024-05-01T08:00:00Z,108.18
2024-05-01T09:00:00Z,108.19
2024-05-01T10:00:00Z,108.18
2024-05-01T11:00:00Z,108.17
2024-05-01T12:00:00Z,108.17
2024-05-01T13:00:00Z,108.16
2024-05-01T14:00:00Z,108.15
2024-05-01T15:00:00Z,108.15
2024-05-01T16:00:00Z,108.14
2024-05-01T17:00:00Z,108.14
2024-05-01T18:00:00Z,108.13
2024-05-01T19:00:00Z,108.13
2024-05-01T20:00:00Z,108.13
2024-05-01T21:00:00Z,108.11
2024-05-01T22:00:00Z,108.11
2024-05-01T23:00:00Z,108.09
2024-05-02T00:00:00Z,108.08
2024-05-02T01:00:00Z,108.07
2024-05-02T02:00:00Z,108.06
2024-05-02T03:00:00Z,108.06
2024-05-02T04:00:00Z,108.06
2024-05-02T05:00:00Z,108.05
2024-05-02T06:00:00Z,108.05
2024-05-02T07:00:00Z,108.04
2024-05-02T08:00:00Z,108.06
2024-05-02T09:00:00Z,108.05
2024-05-02T10:00:00Z,108.05
2024-05-02T11:00:00Z,108.05
2024-05-02T12:00:00Z,108.05
2024-05-02T13:00:00Z,108.05
2024-05-02T14:00:00Z,108.05
2024-05-02T15:00:00Z,108.05
2024-05-02T16:00:00Z,108.05
2024-05-02T17:00:00Z,108.05
2024-05-02T18:00:00Z,108.06
2024-05-02T19:00:00Z,108.06
2024-05-02T20:00:00Z,108.06
2024-05-02T21:00:00Z,108.06
2024-05-02T22:00:00Z,108.07
2024-05-02T23:00:00Z,108.06
2024-05-03T00:00:00Z,108.06
2024-05-03T01:00:00Z,108.06
2024-05-03T02:00:00Z,108.06
2024-05-03T03:00:00Z,108.05
2024-05-03T04:00:00Z,108.05
2024-05-03T05:00:00Z,108.05
2024-05-03T06:00:00Z,108.06
2024-05-03T07:00:00Z,108.05
2024-05-03T08:00:00Z,108.05
2024-05-03T09:00:00Z,108.06
2024-05-03T10:00:00Z,108.07
2024-05-03T11:00:00Z,108.06
2024-05-03T12:00:00Z,108.06
2024-05-03T13:00:00Z,108.06
2024-05-03T14:00:00Z,108.06
2024-05-03T15:00:00Z,108.06
2024-05-03T16:00:00Z,108.06
2024-05-03T17:00:00Z,108.06
2024-05-03T18:00:00Z,108.05
2024-05-03T19:00:00Z,108.06
2024-05-03T20:00:00Z,108.06
2024-05-03T21:00:00Z,108.06
2024-05-03T22:00:00Z,108.05
2024-05-03T23:00:00Z,108.05
2024-05-04T00:00:00Z,108.05
2024-05-04T01:00:00Z,108.05
2024-05-04T02:00:00Z,108.04
2024-05-04T03:00:00Z,108.04
2024-05-04T04:00:00Z,108.04
2024-05-04T05:00:00Z,108.03
2024-05-04T06:00:00Z,108.03
2024-05-04T07:00:00Z,108.03
2024-05-04T08:00:00Z,108.02
2024-05-04T09:00:00Z,108.02
2024-05-04T10:00:00Z,108.02
2024-05-04T11:00:00Z,108.00
2024-05-04T12:00:00Z,108.00
2024-05-04T13:00:00Z,108.00
2024-05-04T14:00:00Z,107.99
2024-05-04T15:00:00Z,107.98
2024-05-04T16:00:00Z,107.97
2024-05-04T17:00:00Z,107.97
2024-05-04T18:00:00Z,107.98
2024-05-04T19:00:00Z,107.97
2024-05-04T20:00:00Z,107.97
2024-05-04T21:00:00Z,107.96
2024-05-04T22:00:00Z,107.96
2024-05-04T23:00:00Z,107.96